CW6294 Weather Reports


time (UTC)temp
C
wind
direction
speed
KPH
gust
KPH
rain 1hr
cm
rain 24hr
cm
rain mn
cm
humidity
%
barometer
mb
20260906031238 23 67 0.0 0.0 0.00 0.00 0.00 90 1010.9
20260906025738 23 67 0.0 0.0 0.00 0.00 0.00 90 1011.0
20260906024237 23 67 0.0 0.0 0.00 0.00 0.00 89 1010.7
20260906022737 23 67 0.0 0.0 0.00 0.00 0.00 90 1010.8
20260906021238 23 67 0.0 0.0 0.00 0.00 0.00 89 1010.8
20260906015736 24 67 0.0 0.0 0.00 0.00 0.00 89 1010.8
20260906014148 24 67 0.0 0.0 0.00 0.00 0.00 89 1010.7
20260906013340 24 67 0.0 0.0 0.00 0.00 0.00 88 1010.4
20260906011144 24 67 0.0 0.0 0.00 0.00 0.00 88 1010.3
20260906005640 24 61 0.0 0.0 0.00 0.00 0.00 89 1009.9
20260906004134 25 57 0.0 0.0 0.00 0.00 0.00 90 1009.9
20260906002605 25 110 0.0 0.0 0.00 0.00 0.00 91 1010.0
20260906001102 25 109 0.0 0.0 0.00 0.00 0.00 90 1009.7
20260906000259 25 109 0.0 0.0 0.00 0.00 0.00 89 1009.7
20260905234104 26 109 0.0 0.0 0.00 0.00 0.00 88 1009.6
20260905232556 26 53 0.0 0.0 0.00 0.00 0.00 83 1009.3
20260905231056 26 281 0.0 0.0 0.00 0.00 0.00 79 1009.1
20260905225557 26 281 0.0 0.0 0.00 0.00 0.00 79 1009.2
20260905224055 26 272 0.0 0.0 0.00 0.00 0.00 79 1009.2
20260905223249 26 272 0.0 0.0 0.00 0.00 0.00 80 1009.1
20260905221050 27 259 1.6 8.0 0.00 0.00 0.00 79 1009.1
20260905215550 27 55 0.0 3.2 0.00 0.00 0.00 78 1009.0
20260905214050 27 65 0.0 6.4 0.00 0.00 0.00 79 1008.8
20260905212550 27 297 0.0 8.0 0.00 0.00 0.00 79 1008.7
20260905211048 27 19 0.0 16.1 0.00 0.00 0.00 79 1008.5
20260905205549 28 267 0.0 9.7 0.00 0.13 0.00 77 1008.5
20260905204047 28 59 0.0 0.0 0.00 0.13 0.00 77 1008.4
20260905202537 28 65 0.0 0.0 0.00 0.13 0.00 79 1008.6
20260905201033 28 59 0.0 0.0 0.00 0.13 0.00 78 1008.6
20260905195532 29 66 0.0 0.0 0.00 0.13 0.00 76 1008.6
20260905194025 28 57 0.0 0.0 0.00 0.13 0.00 79 1008.6
20260905192521 28 256 0.0 0.0 0.00 0.13 0.00 79 1008.5
20260905191013 28 71 0.0 0.0 0.00 0.13 0.00 81 1008.8
20260905185454 28 302 0.0 0.0 0.00 0.13 0.00 80 1009.0
20260905184650 27 33 0.0 0.0 0.00 0.13 0.00 82 1009.1
20260905183154 27 281 0.0 0.0 0.00 0.13 0.00 83 1009.2
20260905180939 27 51 0.0 0.0 0.00 0.13 0.00 81 1009.4
20260905180136 27 5 0.0 0.0 0.00 0.13 0.00 82 1009.6
20260905174621 27 208 0.0 0.0 0.00 0.13 0.00 82 1009.9
20260905172424 27 286 0.0 0.0 0.00 0.13 0.00 83 1010.1
20260905171548 27 190 0.0 0.0 0.00 0.13 0.00 84 1010.3
20260905170059 27 211 0.0 0.0 0.00 0.13 0.00 82 1010.4
20260905163854 27 280 0.0 6.4 0.00 0.13 0.00 84 1010.3
20260905163048 26 262 3.2 11.3 0.00 0.13 0.00 85 1010.5
20260905161539 26 273 0.0 0.0 0.00 0.13 0.00 83 1010.7
20260905155348 26 287 0.0 0.0 0.00 0.13 0.00 84 1010.7
20260905154545 26 279 0.0 0.0 0.00 0.13 0.00 85 1010.8
20260905153040 26 279 0.0 0.0 0.00 0.13 0.00 87 1010.8
20260905150842 26 275 0.0 0.0 0.00 0.13 0.00 87 1011.0
20260905150103 26 268 0.0 0.0 0.00 0.13 0.00 85 1011.0
20260905144527 26 45 0.0 0.0 0.00 0.13 0.00 87 1010.8
20260905142306 26 45 0.0 1.6 0.00 0.13 0.00 87 1010.8
20260905141456 26 69 1.6 11.3 0.00 0.13 0.00 87 1010.5
20260905135256 26 43 0.0 9.7 0.00 0.13 0.00 89 1010.1
20260905133757 26 69 1.6 12.9 0.00 0.13 0.00 91 1010.1
20260905132247 25 351 1.6 9.7 0.00 0.13 0.00 94 1010.2
20260905130746 24 17 1.6 11.3 0.00 0.13 0.00 95 1010.3
20260905125246 24 319 0.0 3.2 0.00 0.13 0.00 96 1010.1
20260905123746 24 266 0.0 8.0 0.00 0.13 0.00 97 1010.0
20260905122228 23 321 0.0 1.6 0.00 0.13 0.00 98 1010.0
20260905120723 23 321 0.0 3.2 0.00 0.13 0.00 99 1009.9
20260905115201 22 200 0.0 0.0 0.00 0.13 0.00 99 1009.8
20260905113657 22 200 0.0 3.2 0.00 0.13 0.00 99 1009.8
20260905112151 23 275 1.6 6.4 0.00 0.13 0.00 98 1009.9
20260905110649 23 275 0.0 0.0 0.00 0.13 0.00 98 1009.2
20260905105147 22 274 0.0 0.0 0.00 0.13 0.00 99 1009.1
20260905103648 22 229 0.0 0.0 0.00 0.13 0.00 100 1009.0
20260905102138 22 229 0.0 0.0 0.00 0.13 0.00 100 1008.9
20260905100630 22 229 0.0 0.0 0.00 0.13 0.00 100 1008.8
20260905095129 22 229 0.0 0.0 0.00 0.13 0.00 100 1008.9
20260905093625 22 229 0.0 0.0 0.00 0.13 0.00 100 1008.7
20260905092118 22 225 0.0 0.0 0.00 0.13 0.00 100 1008.7
20260905090616 22 225 0.0 0.0 0.00 0.13 0.00 100 1008.8
20260905085057 22 225 0.0 0.0 0.00 0.13 0.00 100 1008.8
20260905083554 22 225 0.0 0.0 0.00 0.13 0.00 100 1008.6
20260905082050 22 225 0.0 0.0 0.00 0.13 0.00 100 1008.6
20260905081240 22 225 0.0 0.0 0.00 0.13 0.00 100 1008.9
20260905075731 22 225 0.0 0.0 0.00 0.13 0.00 99 1009.0
20260905073530 23 225 0.0 0.0 0.00 0.13 0.00 99 1009.1
20260905072007 23 225 0.0 0.0 0.00 0.13 0.00 98 1009.0
20260905070504 23 225 0.0 0.0 0.00 0.13 0.00 97 1009.1
20260905065000 23 304 0.0 4.8 0.00 0.13 0.00 98 1009.2
20260905063448 23 279 3.2 11.3 0.00 0.13 0.00 99 1009.4
20260905061948 23 295 1.6 8.0 0.00 0.13 0.00 99 1009.6
20260905060446 23 287 0.0 3.2 0.00 0.13 0.00 99 1009.9
20260905054940 23 287 1.6 8.0 0.00 0.13 0.00 99 1010.2
20260905053440 23 278 0.0 1.6 0.00 0.13 0.00 99 1010.1
20260905051936 23 278 0.0 3.2 0.00 0.13 0.00 100 1010.3
20260905050434 23 279 1.6 8.0 0.00 0.15 0.00 100 1010.4
20260905044934 23 291 1.6 8.0 0.00 0.51 0.00 100 1010.4
20260905043429 23 284 1.6 3.2 0.00 1.14 0.00 100 1010.4
20260905042631 23 230 1.6 3.2 0.00 1.80 0.00 100 1010.6
20260905041135 23 288 0.0 3.2 0.00 2.51 0.00 100 1010.7
20260905034926 23 274 1.6 6.4 0.00 3.25 2.72 100 1010.9
20260905033426 23 288 1.6 6.4 0.00 3.94 2.72 100 1010.8
20260905031929 23 232 1.6 6.4 0.00 4.37 2.72 100 1010.8